User: anonymous   Login
Location: Narrabri
(30.3170°S, 149.7830°E)
Time: 12:20:10
(UTC+10:00)
Language:

XW-2D - Orbit

View from above orbital plane
View from above orbital plane
View from above satellite
View from above satellite

Ground track
Ground track

The orbit data is extracted from the following two-line orbital elements,

1 40907U 15049J   18201.55096974  .00000558  00000-0  33037-4 0  9994
2 40907  97.4574 204.1252 0012665 272.7220  87.2563 15.15396072156558
Epoch (UTC): 20 July 2018 13:13:23
Eccentricity: 0.0012665
inclination: 97.4574°
perigee height: 511 km
apogee height: 528 km
right ascension of ascending node: 204.1252°
argument of perigee: 272.7220°
revolutions per day: 15.15396072
mean anomaly at epoch: 87.2563°
orbit number at epoch: 15655

The dashed part of the orbit path shows where the satellite is in the earth's shadow,  

DLR